Flag for Germany Weather past 2 weeks in Walsrode, Lower Saxony, Germany

Now
82 °F

Partly sunny.


Feels Like: 83 °F
Forecast: 64 / 97 °F
Wind: 5 mph from Northwest

Location: Fassberg

Current Time: Jul 3, 2015 at 3:00:22 PM

Latest Report: Jul 3, 2015 at 2:20 PM


Visibility: N/A

Pressure: 30.24 "Hg

Humidity: 51%

Dew point: 63 °F

Location of WalsrodeLocation

Historic Weather in Walsrode — Graph

°F

Walsrode temperature yesterday

Maximum temperature yesterday: 91 °F (at 5:00 PM)
Minimum temperature yesterday: 57 °F (at 5:20 AM)
Average temperature yesterday: 78 °F

Past Weeks' High & Low Weather Summary

 TemperatureHumidityPressure
High91 °F (Jul 2, 5:00 PM)100% (Jun 21, 4:20 AM)30.30 "Hg (Jun 21, 4:20 AM)
Low39 °F (Jun 21, 4:20 AM)28% (Jul 2, 5:00 PM)29.65 "Hg (Jun 22, 9:20 PM)
Average61 °F71%30.04 "Hg
* Reported Jun 18 1:20 PM — Jul 3 1:20 PM, Walsrode, Weather by CustomWeather, © 2015

Note: Actual official high and low records may vary slightly from our data, if they occured in-between our weather recording intervals... More about our weather records

Advertising

Walsrode weather history for previous 24 hours

 ConditionsComfort  
Time TempWeatherWind HumidityBarometerVisibility
1:20 PM
Fri, Jul 3
81 °FPartly sunny.6 mph62%30.24 "HgN/A
12:20 PM79 °FBroken clouds.7 mph65%30.24 "HgN/A
11:20 AM75 °FBroken clouds.3 mph69%30.24 "HgN/A
10:20 AM72 °FBroken clouds.10 mph78%30.24 "HgN/A
9:20 AM72 °FThunderstorms. Partly sunny.10 mph61%30.27 "Hg4 mi
8:20 AM72 °FThundershowers. Broken clouds.9 mph57%30.30 "HgN/A
7:20 AM72 °FPartly sunny.8 mph57%30.24 "HgN/A
6:20 AM68 °FPartly sunny.3 mph64%30.24 "HgN/A
5:20 AM66 °FPartly cloudy.3 mph64%30.24 "HgN/A
4:20 AM64 °FPartly cloudy.7 mph68%30.21 "HgN/A
3:20 AM66 °FPassing clouds.3 mph64%30.21 "HgN/A
2:20 AM66 °FPassing clouds.7 mph60%30.18 "HgN/A
1:20 AM70 °FPassing clouds.7 mph53%30.18 "HgN/A
12:20 AM73 °FPassing clouds.7 mph47%30.18 "HgN/A
11:20 PM
Thu, Jul 2
75 °FPassing clouds.8 mph44%30.18 "HgN/A
10:20 PM77 °FPassing clouds.8 mph42%30.18 "HgN/A
9:20 PM82 °FPassing clouds.9 mph37%30.15 "HgN/A
8:20 PM86 °FPassing clouds.10 mph33%30.15 "HgN/A
7:20 PM88 °FPleasantly warm.14 mph31%30.15 "HgN/A
6:20 PM90 °FHot.13 mph29%30.15 "HgN/A
5:20 PM91 °FHot.15 mph28%30.15 "HgN/A
5:00 PM91 °FHot.13 mph28%30.15 "HgN/A
4:20 PM90 °FHot.13 mph29%30.15 "HgN/A
3:20 PM90 °FHot.12 mph31%30.15 "HgN/A
Weather by CustomWeather, © 2015

See weather overviewHow to use our weather pages